COSMOS 1563

Satellite information

Favourite Embed

Satellite Type and Status

PAYLOADIN ORBIT

Key statistics

Satellite COSMOS 1563 at a glance.

Uptime

14960

Days in orbit

Revolutions

≈ 12.5

Per day

Orbit

LEO

Low Earth Orbit

Inclination

74.0

Latest

Satellite identification and parameters

Extended collection of information and parameters for COSMOS 1563.

Object identification

Identified? True

Debris? False

Object name: COSMOS 1563

International designator: 1984-052E

Object number (NORAD): 15002

Object ID (CCSDS): 15002

Country: COMMONWEALTH OF INDEPENDENT STATES (CIS)

Current information (Y/N): Y

RCS size: MEDIUM

Orbital parameters

Period: 115.031 minutes

Inclination: 74.0139 deg

SMA: 7834.978 km

Apoapsis: 1476.456 km

Periapsis: 1437.23 km

RAAN: 58.7905 deg

Eccentricy: 0.0025033

Argument of periapsis: 273.4314 deg

Mean anomaly: 115.9742 deg

Mean motion: 12.51832129 rev/day

Mean motion (dot): -0.00000018 rev/day2

B* drag term: -0.000010046 1/REarth

Two-line elements (TLE)

Creation date: May 12, 2025, 10:26 p.m.

Reference frame: TEME

Reference center: EARTH

Epoch: May 12, 2025, 7:33 p.m. UTC

TLE line 0: 0 COSMOS 1563

TLE line 1: 1 15002U 84052E 25132.81497284 -.00000018 00000-0 -10046-4 0 9999

TLE line 2: 2 15002 74.0139 58.7905 0025033 273.4314 115.9742 12.51832129604288

Live tracking on map

Real-time ground track for satellite COSMOS 1563.

In-orbit conjunctions

A list of the most updated potential collisions computed for object COSMOS 1563.

Target Orbit TCA Probability of collision Miss distance Type
DELTA 1 DEB SSO 2024-11-01 18:20:21 0.0002700553 947.0 (m) DEBRIS

Associated space launch

Military communications satellites

COSMOS 1563 was lifted into orbit during the mission ‘Kosmos-3M | Strela-1M 281-288’, on board a Kosmos-3M space rocket.

The launch took place on May 28, 1984, 9:52 p.m. from 132/2.

For more information about the launch, click the button.

Launch to space Kosmos-3M | Strela-1M 281-288
Kosmos-3M | Strela-1M 281-288

Agency: N/A

Status: Launch Successful

Launch date: May 28, 1984, 9:52 p.m. UTC

Rocket: Kosmos-3M

Launch pad: 132/2

Location: Plesetsk Cosmodrome, Russian Federation

...

Latest news about this satellite

There are no fresh news available about this satellite. Check back as we update our databases every day.


Newsletter sign-up

Weekly statistics, charts and insights to help you stay on top of the space industry.